QPF
0.00 0.00 0.00 0.00 0.00 0.00 0.00 0.00 0.00 0.00 0.01 0.00 0.00 0.00 0.00 0.01 0.01 0.01 0.02 0.02 0.02 0.02 0.02 0.02 0.02 0.02 0.02 0.02 0.03 0.03 0.04 0.03 0.04 0.07 0.08 0.07 0.07 0.08 0.08 0.08 0.08 0.11 0.13 0.15
0.00 0.00 0.00 0.00 0.00 0.00 0.00 0.00 0.00 0.00 0.00 0.00 0.00 0.00 0.00 0.01 0.01 0.02 0.02 0.02 0.02 0.02 0.02 0.03 0.03 0.02 0.02 0.03 0.04 0.06 0.07 0.05 0.05 0.06 0.06 0.07 0.06 0.06 0.07 0.09 0.11 0.13 0.16 0.17
0.00 0.00 0.00 0.00 0.00 0.00 0.00 0.00 0.00 0.00 0.00 0.00 0.00 0.00 0.00 0.01 0.01 0.02 0.03 0.02 0.02 0.02 0.01 0.02 0.02 0.02 0.02 0.02 0.06 0.09 0.09 0.08 0.06 0.05 0.04 0.05 0.05 0.06 0.07 0.10 0.10 0.09 0.12 0.15
0.00 0.00 0.00 0.00 0.00 0.00 0.00 0.00 0.00 0.00 0.00 0.00 0.00 0.00 0.01 0.01 0.01 0.02 0.02 0.01 0.02 0.02 0.01 0.01 0.01 0.01 0.02 0.02 0.04 0.08 0.10 0.07 0.06 0.05 0.05 0.05 0.06 0.09 0.10 0.11 0.12 0.12 0.12 0.12
0.00 0.00 0.00 0.00 0.00 0.00 0.00 0.00 0.00 0.00 0.00 0.00 0.00 0.01 0.01 0.01 0.01 0.01 0.01 0.01 0.01 0.01 0.01 0.01 0.01 0.01 0.01 0.03 0.04 0.05 0.07 0.07 0.07 0.07 0.09 0.07 0.07 0.14 0.14 0.09 0.10 0.14 0.15 0.13
0.00 0.00 0.01 0.00 0.00 0.00 0.00 0.00 0.00 0.00 0.00 0.01 0.01 0.01 0.01 0.00 0.00 0.00 0.01 0.01 0.01 0.01 0.01 0.01 0.01 0.01 0.01 0.02 0.03 0.03 0.05 0.07 0.07 0.07 0.07 0.07 0.06 0.13 0.18 0.14 0.10 0.11 0.12 0.12
0.00 0.00 0.00 0.00 0.00 0.00 0.01 0.00 0.00 0.00 0.00 0.01 0.01 0.01 0.01 0.01 0.01 0.01 0.01 0.01 0.01 0.01 0.01 0.01 0.01 0.02 0.03 0.03 0.03 0.03 0.04 0.05 0.05 0.05 0.06 0.08 0.07 0.12 0.18 0.19 0.16 0.14 0.11 0.09
0.00 0.00 0.00 0.00 0.00 0.00 0.01 0.00 0.00 0.00 0.00 0.00 0.01 0.01 0.01 0.01 0.01 0.01 0.01 0.02 0.01 0.01 0.01 0.01 0.02 0.03 0.04 0.05 0.06 0.05 0.04 0.04 0.05 0.06 0.06 0.05 0.06 0.09 0.13 0.18 0.21 0.19 0.15 0.12
0.00 0.00 0.00 0.00 0.00 0.00 0.00 0.00 0.00 0.00 0.01 0.01 0.01 0.01 0.01 0.01 0.01 0.01 0.01 0.02 0.03 0.02 0.02 0.02 0.03 0.05 0.06 0.05 0.05 0.04 0.03 0.03 0.03 0.05 0.06 0.06 0.05 0.08 0.11 0.13 0.13 0.13 0.12 0.10
0.01 0.00 0.00 0.00 0.00 0.00 0.00 0.00 0.00 0.01 0.01 0.02 0.01 0.01 0.01 0.01 0.01 0.01 0.01 0.02 0.03 0.03 0.04 0.04 0.04 0.05 0.05 0.05 0.05 0.05 0.05 0.03 0.03 0.04 0.05 0.05 0.05 0.05 0.07 0.08 0.08 0.08 0.07 0.06
0.01 0.01 0.01 0.00 0.00 0.00 0.00 0.00 0.01 0.01 0.01 0.01 0.01 0.02 0.02 0.02 0.02 0.02 0.02 0.02 0.03 0.04 0.05 0.04 0.03 0.04 0.06 0.04 0.03 0.03 0.03 0.02 0.02 0.03 0.04 0.04 0.04 0.05 0.05 0.07 0.09 0.09 0.09 0.09
0.01 0.01 0.01 0.01 0.00 0.00 0.00 0.01 0.01 0.01 0.02 0.03 0.02 0.02 0.02 0.02 0.03 0.03 0.03 0.03 0.03 0.04 0.03 0.03 0.03 0.04 0.04 0.04 0.03 0.03 0.02 0.02 0.03 0.04 0.05 0.05 0.05 0.05 0.06 0.06 0.07 0.07 0.08 0.08
0.00 0.00 0.00 0.00 0.01 0.01 0.01 0.01 0.01 0.02 0.02 0.03 0.03 0.02 0.02 0.02 0.03 0.04 0.04 0.04 0.04 0.04 0.03 0.02 0.02 0.03 0.03 0.03 0.03 0.03 0.03 0.03 0.03 0.04 0.04 0.04 0.04 0.05 0.06 0.06 0.07 0.08 0.08 0.08
0.01 0.00 0.00 0.01 0.01 0.01 0.01 0.01 0.01 0.01 0.02 0.02 0.03 0.03 0.02 0.01 0.02 0.02 0.04 0.05 0.04 0.03 0.02 0.02 0.02 0.02 0.02 0.03 0.03 0.03 0.03 0.03 0.03 0.03 0.03 0.03 0.03 0.05 0.06 0.06 0.07 0.09 0.09 0.09
0.01 0.01 0.01 0.01 0.01 0.01 0.02 0.02 0.02 0.02 0.02 0.03 0.04 0.04 0.03 0.02 0.02 0.03 0.03 0.04 0.03 0.02 0.02 0.03 0.02 0.02 0.03 0.04 0.04 0.04 0.04 0.03 0.02 0.02 0.03 0.03 0.03 0.04 0.05 0.05 0.05 0.05 0.04 0.04
0.01 0.01 0.01 0.01 0.01 0.02 0.01 0.01 0.01 0.02 0.02 0.02 0.03 0.03 0.03 0.02 0.02 0.03 0.04 0.05 0.05 0.05 0.05 0.05 0.04 0.03 0.03 0.03 0.03 0.02 0.02 0.03 0.02 0.02 0.01 0.02 0.02 0.03 0.04 0.05 0.06 0.05 0.04 0.03
0.01 0.01 0.01 0.01 0.01 0.02 0.01 0.01 0.01 0.02 0.02 0.03 0.03 0.03 0.03 0.03 0.04 0.06 0.07 0.06 0.05 0.05 0.05 0.05 0.04 0.02 0.02 0.02 0.02 0.01 0.01 0.01 0.01 0.01 0.01 0.01 0.02 0.02 0.03 0.03 0.02 0.02 0.02 0.01
0.01 0.01 0.01 0.01 0.01 0.02 0.02 0.02 0.01 0.03 0.03 0.04 0.04 0.04 0.04 0.04 0.04 0.05 0.05 0.05 0.04 0.04 0.05 0.04 0.04 0.02 0.01 0.01 0.02 0.01 0.01 0.01 0.01 0.01 0.01 0.01 0.01 0.01 0.01 0.01 0.01 0.00 0.00 0.00
0.01 0.01 0.01 0.01 0.01 0.02 0.02 0.02 0.02 0.04 0.04 0.04 0.04 0.04 0.03 0.02 0.02 0.03 0.03 0.03 0.03 0.03 0.03 0.02 0.02 0.02 0.02 0.02 0.02 0.02 0.03 0.02 0.02 0.01 0.01 0.00 0.00 0.00 0.01 0.01 0.00 0.00 0.00 0.00
0.01 0.01 0.02 0.02 0.02 0.03 0.02 0.02 0.02 0.02 0.02 0.02 0.02 0.02 0.02 0.01 0.01 0.02 0.02 0.02 0.02 0.01 0.01 0.00 0.00 0.00 0.00 0.01 0.01 0.01 0.01 0.01 0.01 0.00 0.00 0.00 0.00 0.00 0.00 0.00 0.00 0.00 0.00 0.00
0.01 0.01 0.02 0.02 0.03 0.03 0.02 0.02 0.01 0.01 0.01 0.01 0.01 0.01 0.01 0.01 0.01 0.01 0.01 0.01 0.00 0.00 0.00 0.00 0.00 0.00 0.00 0.00 0.00 0.00 0.00 0.00 0.00 0.00 0.00 0.00 0.00 0.00 0.00 0.00 0.00 0.00 0.00 0.00
0.01 0.01 0.02 0.02 0.02 0.02 0.02 0.02 0.01 0.01 0.01 0.01 0.01 0.01 0.01 0.01 0.01 0.00 0.00 0.00 0.00 0.00 0.00 0.00 0.00 0.00 0.00 0.00 0.00 0.00 0.00 0.00 0.00 0.00 0.00 0.00 0.00 0.00 0.00 0.00 0.00 0.00 0.00 0.00
0.01 0.02 0.02 0.02 0.01 0.02 0.02 0.01 0.01 0.01 0.01 0.01 0.01 0.01 0.01 0.01 0.01 0.00 0.00 0.00 0.00 0.00 0.00 0.00 0.00 0.00 0.00 0.00 0.00 0.00 0.00 0.00 0.00 0.00 0.00 0.00 0.00 0.00 0.00 0.00 0.00 0.00 0.00 0.00
0.02 0.02 0.02 0.02 0.02 0.02 0.02 0.02 0.02 0.01 0.01 0.01 0.01 0.01 0.01 0.00 0.00 0.00 0.00 0.00 0.00 0.00 0.00 0.00 0.00 0.00 0.00 0.00 0.00 0.00 0.00 0.00 0.00 0.00 0.00 0.00 0.00 0.00 0.00 0.00 0.00 0.00 0.00 0.00
0.03 0.03 0.03 0.03 0.03 0.02 0.02 0.01 0.01 0.01 0.01 0.01 0.01 0.01 0.01 0.00 0.00 0.00 0.00 0.00 0.00 0.00 0.00 0.00 0.00 0.00 0.00 0.00 0.00 0.00 0.00 0.00 0.00 0.00 0.00 0.00 0.00 0.00 0.00 0.00 0.00 0.00 0.00 0.00
0.04 0.04 0.04 0.04 0.04 0.03 0.02 0.01 0.01 0.01 0.01 0.01 0.00 0.01 0.01 0.00 0.00 0.00 0.00 0.00 0.00 0.00 0.00 0.00 0.00 0.00 0.00 0.00 0.00 0.00 0.00 0.00 0.00 0.00 0.00 0.00 0.00 0.00 0.00 0.00 0.00 0.00 0.00 0.00
0.05 0.04 0.05 0.04 0.03 0.03 0.02 0.02 0.01 0.01 0.01 0.01 0.00 0.00 0.00 0.00 0.00 0.00 0.00 0.00 0.00 0.00 0.00 0.00 0.00 0.00 0.00 0.00 0.00 0.00 0.00 0.00 0.00 0.00 0.00 0.00 0.00 0.00 0.00 0.00 0.00 0.00 0.00 0.00
MSLP
1006.13 1006.37 1006.61 1006.85 1007.07 1007.28 1007.48 1007.66 1007.82 1007.95 1008.05 1008.12 1008.16 1008.19 1008.20 1008.22 1008.24 1008.29 1008.35 1008.45 1008.57 1008.73 1008.92 1009.13 1009.37 1009.62 1009.90 1010.17 1010.45 1010.73 1011.01 1011.28 1011.55 1011.81 1012.09 1012.38 1012.70 1013.04 1013.42 1013.82 1014.26 1014.70 1015.15 1015.58
1005.90 1006.12 1006.32 1006.49 1006.64 1006.78 1006.93 1007.10 1007.27 1007.46 1007.66 1007.84 1008.01 1008.14 1008.24 1008.30 1008.34 1008.37 1008.39 1008.43 1008.50 1008.61 1008.78 1008.99 1009.26 1009.56 1009.89 1010.23 1010.57 1010.90 1011.22 1011.51 1011.79 1012.06 1012.33 1012.63 1012.94 1013.29 1013.67 1014.07 1014.50 1014.92 1015.34 1015.73
1005.70 1005.92 1006.10 1006.23 1006.33 1006.43 1006.54 1006.69 1006.88 1007.11 1007.38 1007.65 1007.91 1008.14 1008.32 1008.44 1008.50 1008.53 1008.53 1008.52 1008.55 1008.62 1008.76 1008.96 1009.23 1009.55 1009.91 1010.29 1010.66 1011.02 1011.35 1011.66 1011.94 1012.22 1012.50 1012.79 1013.11 1013.46 1013.84 1014.24 1014.65 1015.05 1015.44 1015.79
1005.53 1005.80 1005.99 1006.11 1006.19 1006.26 1006.34 1006.47 1006.66 1006.91 1007.22 1007.56 1007.90 1008.22 1008.47 1008.66 1008.77 1008.81 1008.82 1008.80 1008.80 1008.84 1008.94 1009.11 1009.35 1009.65 1009.99 1010.35 1010.70 1011.05 1011.36 1011.65 1011.92 1012.18 1012.45 1012.74 1013.06 1013.42 1013.80 1014.20 1014.60 1015.00 1015.36 1015.70
1005.45 1005.78 1006.01 1006.15 1006.23 1006.28 1006.34 1006.44 1006.62 1006.87 1007.20 1007.58 1007.98 1008.37 1008.70 1008.96 1009.14 1009.24 1009.27 1009.27 1009.26 1009.28 1009.34 1009.46 1009.63 1009.87 1010.13 1010.42 1010.70 1010.97 1011.22 1011.46 1011.68 1011.91 1012.16 1012.44 1012.76 1013.12 1013.51 1013.92 1014.33 1014.74 1015.11 1015.45
1005.48 1005.88 1006.17 1006.35 1006.44 1006.48 1006.52 1006.60 1006.75 1006.99 1007.31 1007.71 1008.15 1008.59 1008.99 1009.33 1009.59 1009.76 1009.85 1009.89 1009.90 1009.90 1009.92 1009.97 1010.07 1010.19 1010.35 1010.51 1010.68 1010.83 1010.98 1011.13 1011.28 1011.46 1011.67 1011.93 1012.25 1012.62 1013.03 1013.47 1013.92 1014.36 1014.78 1015.16
1005.63 1006.10 1006.45 1006.67 1006.79 1006.83 1006.86 1006.91 1007.02 1007.22 1007.53 1007.92 1008.37 1008.85 1009.31 1009.72 1010.06 1010.32 1010.49 1010.58 1010.62 1010.62 1010.61 1010.60 1010.60 1010.61 1010.63 1010.65 1010.67 1010.69 1010.72 1010.76 1010.83 1010.95 1011.12 1011.37 1011.69 1012.08 1012.53 1013.01 1013.51 1014.02 1014.51 1014.97
1005.88 1006.42 1006.83 1007.09 1007.24 1007.29 1007.30 1007.32 1007.40 1007.56 1007.82 1008.18 1008.63 1009.12 1009.63 1010.10 1010.52 1010.85 1011.10 1011.26 1011.34 1011.35 1011.32 1011.26 1011.18 1011.08 1010.97 1010.86 1010.75 1010.64 1010.56 1010.50 1010.50 1010.57 1010.72 1010.96 1011.30 1011.72 1012.21 1012.75 1013.32 1013.91 1014.48 1015.04
1006.22 1006.80 1007.26 1007.56 1007.73 1007.80 1007.80 1007.80 1007.84 1007.95 1008.17 1008.49 1008.91 1009.40 1009.92 1010.44 1010.91 1011.31 1011.63 1011.85 1011.98 1012.02 1011.99 1011.90 1011.76 1011.59 1011.40 1011.19 1010.98 1010.79 1010.62 1010.51 1010.47 1010.51 1010.66 1010.91 1011.27 1011.73 1012.27 1012.87 1013.52 1014.18 1014.84 1015.48
1006.61 1007.22 1007.70 1008.04 1008.23 1008.31 1008.32 1008.30 1008.31 1008.38 1008.55 1008.83 1009.22 1009.68 1010.20 1010.73 1011.23 1011.68 1012.06 1012.33 1012.51 1012.59 1012.58 1012.49 1012.34 1012.15 1011.92 1011.67 1011.42 1011.20 1011.02 1010.89 1010.85 1010.90 1011.07 1011.35 1011.75 1012.24 1012.83 1013.49 1014.19 1014.91 1015.63 1016.34
1007.03 1007.64 1008.13 1008.49 1008.70 1008.80 1008.81 1008.79 1008.78 1008.84 1008.97 1009.21 1009.56 1009.99 1010.48 1011.00 1011.52 1011.99 1012.40 1012.72 1012.94 1013.07 1013.10 1013.05 1012.93 1012.76 1012.55 1012.33 1012.11 1011.91 1011.77 1011.68 1011.68 1011.78 1011.99 1012.32 1012.75 1013.29 1013.90 1014.59 1015.32 1016.07 1016.82 1017.56
1007.48 1008.07 1008.55 1008.91 1009.13 1009.24 1009.27 1009.27 1009.27 1009.31 1009.43 1009.64 1009.95 1010.35 1010.82 1011.31 1011.82 1012.29 1012.72 1013.07 1013.33 1013.50 1013.58 1013.59 1013.53 1013.43 1013.29 1013.15 1013.01 1012.90 1012.83 1012.83 1012.91 1013.08 1013.34 1013.72 1014.18 1014.74 1015.37 1016.06 1016.78 1017.53 1018.26 1018.98
1007.98 1008.52 1008.97 1009.31 1009.54 1009.66 1009.72 1009.73 1009.76 1009.81 1009.93 1010.14 1010.43 1010.80 1011.24 1011.71 1012.19 1012.66 1013.08 1013.44 1013.73 1013.94 1014.08 1014.16 1014.18 1014.16 1014.12 1014.07 1014.04 1014.04 1014.08 1014.18 1014.35 1014.59 1014.92 1015.34 1015.83 1016.39 1017.01 1017.68 1018.36 1019.06 1019.74 1020.40
1008.53 1009.02 1009.42 1009.73 1009.95 1010.08 1010.16 1010.21 1010.27 1010.36 1010.50 1010.71 1011.00 1011.36 1011.77 1012.22 1012.68 1013.12 1013.53 1013.90 1014.20 1014.44 1014.62 1014.76 1014.85 1014.91 1014.97 1015.02 1015.10 1015.20 1015.35 1015.55 1015.80 1016.12 1016.50 1016.95 1017.45 1018.00 1018.59 1019.21 1019.84 1020.47 1021.08 1021.65
1009.17 1009.58 1009.93 1010.19 1010.39 1010.53 1010.64 1010.73 1010.83 1010.96 1011.14 1011.38 1011.68 1012.03 1012.43 1012.86 1013.29 1013.71 1014.10 1014.45 1014.75 1015.00 1015.21 1015.38 1015.52 1015.65 1015.77 1015.90 1016.06 1016.25 1016.48 1016.75 1017.07 1017.44 1017.86 1018.32 1018.82 1019.36 1019.91 1020.48 1021.04 1021.59 1022.12 1022.60
1009.89 1010.23 1010.51 1010.73 1010.91 1011.05 1011.18 1011.30 1011.45 1011.63 1011.85 1012.12 1012.44 1012.80 1013.20 1013.60 1014.01 1014.40 1014.77 1015.09 1015.38 1015.61 1015.82 1015.99 1016.15 1016.31 1016.46 1016.64 1016.84 1017.08 1017.35 1017.67 1018.03 1018.43 1018.86 1019.33 1019.83 1020.34 1020.85 1021.37 1021.88 1022.36 1022.81 1023.23
1010.66 1010.93 1011.16 1011.34 1011.50 1011.65 1011.79 1011.95 1012.14 1012.36 1012.62 1012.92 1013.26 1013.63 1014.02 1014.41 1014.80 1015.16 1015.49 1015.78 1016.03 1016.24 1016.42 1016.57 1016.72 1016.86 1017.01 1017.19 1017.40 1017.64 1017.93 1018.26 1018.63 1019.03 1019.47 1019.94 1020.43 1020.92 1021.41 1021.90 1022.37 1022.80 1023.20 1023.57
1011.44 1011.67 1011.86 1012.02 1012.17 1012.32 1012.48 1012.67 1012.88 1013.14 1013.43 1013.76 1014.11 1014.49 1014.86 1015.24 1015.59 1015.92 1016.21 1016.46 1016.67 1016.84 1016.97 1017.09 1017.20 1017.30 1017.42 1017.57 1017.75 1017.97 1018.24 1018.56 1018.92 1019.32 1019.76 1020.22 1020.70 1021.19 1021.68 1022.15 1022.59 1023.01 1023.39 1023.72
1012.18 1012.40 1012.58 1012.73 1012.89 1013.04 1013.22 1013.43 1013.67 1013.95 1014.25 1014.59 1014.94 1015.31 1015.67 1016.02 1016.34 1016.63 1016.88 1017.09 1017.26 1017.38 1017.48 1017.55 1017.61 1017.67 1017.74 1017.85 1017.98 1018.17 1018.40 1018.69 1019.03 1019.42 1019.85 1020.31 1020.80 1021.29 1021.78 1022.25 1022.70 1023.12 1023.49 1023.82
1012.83 1013.06 1013.25 1013.42 1013.60 1013.78 1013.97 1014.20 1014.45 1014.73 1015.04 1015.37 1015.71 1016.05 1016.38 1016.70 1016.99 1017.25 1017.47 1017.64 1017.77 1017.86 1017.93 1017.96 1017.99 1018.01 1018.05 1018.11 1018.21 1018.35 1018.56 1018.82 1019.13 1019.51 1019.93 1020.39 1020.88 1021.38 1021.88 1022.37 1022.82 1023.24 1023.62 1023.95
1013.34 1013.61 1013.84 1014.05 1014.25 1014.46 1014.68 1014.92 1015.18 1015.46 1015.75 1016.06 1016.37 1016.69 1016.99 1017.27 1017.53 1017.76 1017.95 1018.10 1018.22 1018.30 1018.35 1018.38 1018.38 1018.39 1018.41 1018.45 1018.53 1018.65 1018.82 1019.06 1019.36 1019.72 1020.13 1020.59 1021.08 1021.58 1022.09 1022.58 1023.04 1023.47 1023.85 1024.18
1013.70 1014.02 1014.30 1014.56 1014.80 1015.04 1015.28 1015.54 1015.80 1016.07 1016.34 1016.63 1016.91 1017.19 1017.46 1017.71 1017.94 1018.15 1018.34 1018.49 1018.61 1018.71 1018.77 1018.82 1018.84 1018.86 1018.89 1018.93 1019.00 1019.12 1019.28 1019.50 1019.78 1020.13 1020.53 1020.97 1021.45 1021.94 1022.44 1022.93 1023.38 1023.80 1024.17 1024.50
1013.93 1014.30 1014.63 1014.93 1015.21 1015.48 1015.74 1016.01 1016.27 1016.53 1016.79 1017.04 1017.30 1017.55 1017.79 1018.03 1018.25 1018.46 1018.65 1018.83 1018.98 1019.10 1019.21 1019.30 1019.37 1019.43 1019.49 1019.56 1019.65 1019.77 1019.93 1020.15 1020.41 1020.74 1021.11 1021.53 1021.98 1022.45 1022.93 1023.39 1023.82 1024.22 1024.57 1024.87
1014.06 1014.46 1014.82 1015.16 1015.47 1015.76 1016.04 1016.31 1016.57 1016.82 1017.07 1017.31 1017.55 1017.79 1018.02 1018.25 1018.48 1018.70 1018.91 1019.12 1019.32 1019.50 1019.67 1019.81 1019.95 1020.06 1020.18 1020.29 1020.41 1020.55 1020.72 1020.93 1021.17 1021.47 1021.82 1022.20 1022.61 1023.04 1023.47 1023.90 1024.30 1024.66 1024.97 1025.24
1014.13 1014.54 1014.91 1015.26 1015.58 1015.89 1016.17 1016.45 1016.71 1016.97 1017.22 1017.46 1017.69 1017.93 1018.17 1018.40 1018.65 1018.90 1019.15 1019.40 1019.65 1019.89 1020.12 1020.34 1020.53 1020.71 1020.88 1021.04 1021.19 1021.36 1021.53 1021.73 1021.97 1022.23 1022.53 1022.87 1023.24 1023.62 1024.00 1024.38 1024.74 1025.06 1025.34 1025.58
1014.18 1014.58 1014.93 1015.27 1015.59 1015.90 1016.19 1016.47 1016.74 1017.01 1017.27 1017.52 1017.77 1018.03 1018.28 1018.54 1018.81 1019.09 1019.38 1019.67 1019.97 1020.26 1020.55 1020.82 1021.07 1021.31 1021.52 1021.72 1021.91 1022.09 1022.27 1022.46 1022.67 1022.90 1023.17 1023.46 1023.77 1024.10 1024.44 1024.78 1025.09 1025.39 1025.64 1025.85
1014.26 1014.61 1014.94 1015.25 1015.56 1015.85 1016.15 1016.44 1016.73 1017.02 1017.30 1017.58 1017.86 1018.14 1018.42 1018.71 1019.01 1019.32 1019.63 1019.95 1020.28 1020.60 1020.92 1021.23 1021.52 1021.79 1022.03 1022.26 1022.46 1022.65 1022.83 1023.01 1023.20 1023.41 1023.64 1023.89 1024.17 1024.46 1024.76 1025.06 1025.35 1025.62 1025.86 1026.06
Thickness
5769 5777 5776 5771 5769 5770 5771 5776 5771 5773 5774 5772 5772 5770 5767 5766 5763 5760 5758 5757 5755 5753 5750 5749 5748 5745 5744 5742 5740 5738 5735 5733 5730 5729 5728 5726 5725 5723 5722 5721 5720 5719 5719 5718
5753 5763 5766 5764 5769 5769 5769 5773 5774 5773 5768 5773 5769 5767 5761 5758 5757 5754 5752 5751 5749 5747 5745 5743 5742 5740 5739 5737 5736 5734 5731 5729 5727 5726 5723 5721 5719 5718 5717 5715 5714 5714 5713 5712
5744 5753 5751 5745 5760 5763 5765 5770 5771 5764 5764 5763 5758 5754 5751 5751 5751 5749 5747 5745 5743 5741 5739 5737 5737 5736 5733 5732 5731 5729 5727 5725 5723 5720 5718 5716 5714 5712 5710 5708 5708 5706 5706 5704
5745 5736 5722 5750 5761 5763 5761 5760 5764 5761 5758 5756 5751 5746 5744 5745 5743 5741 5740 5738 5737 5736 5734 5733 5732 5731 5729 5727 5725 5723 5721 5719 5717 5714 5711 5709 5706 5705 5703 5702 5700 5698 5696 5695
5738 5730 5734 5735 5748 5753 5749 5746 5754 5753 5749 5746 5744 5740 5735 5734 5735 5733 5732 5731 5730 5731 5729 5728 5726 5725 5723 5720 5719 5716 5714 5712 5711 5708 5705 5702 5699 5697 5696 5694 5692 5690 5688 5687
5729 5724 5719 5736 5746 5751 5746 5734 5744 5745 5740 5738 5738 5734 5727 5724 5724 5723 5723 5724 5723 5723 5721 5719 5718 5718 5716 5713 5711 5709 5707 5705 5704 5702 5699 5696 5693 5690 5689 5687 5685 5683 5680 5678
5721 5721 5729 5733 5738 5738 5723 5729 5736 5736 5734 5732 5730 5729 5720 5717 5714 5714 5713 5714 5714 5713 5711 5710 5710 5709 5706 5704 5702 5701 5699 5697 5695 5694 5692 5689 5686 5684 5681 5679 5677 5673 5670 5667
5717 5712 5713 5721 5726 5725 5721 5726 5728 5727 5725 5722 5716 5714 5710 5707 5704 5704 5703 5704 5704 5702 5699 5699 5700 5700 5696 5693 5692 5691 5690 5688 5686 5685 5683 5681 5679 5676 5673 5671 5667 5663 5660 5657
5708 5703 5703 5712 5713 5712 5717 5715 5716 5716 5715 5711 5706 5702 5699 5697 5695 5694 5694 5694 5694 5692 5689 5688 5689 5689 5686 5684 5684 5683 5681 5678 5676 5675 5673 5672 5670 5668 5665 5662 5660 5656 5653 5649
5692 5690 5692 5696 5699 5702 5705 5705 5706 5706 5704 5701 5696 5692 5690 5687 5685 5683 5683 5682 5682 5681 5678 5676 5676 5676 5675 5674 5674 5673 5670 5668 5666 5664 5662 5660 5660 5659 5657 5654 5651 5647 5644 5640
5682 5679 5681 5683 5687 5689 5692 5694 5695 5695 5693 5691 5687 5682 5680 5677 5674 5673 5671 5671 5670 5669 5667 5665 5664 5664 5664 5663 5663 5661 5659 5657 5655 5653 5650 5646 5642 5639 5639 5634 5635 5636 5634 5630
5681 5679 5681 5675 5676 5679 5680 5681 5682 5682 5680 5678 5676 5673 5670 5667 5664 5663 5661 5660 5659 5657 5656 5654 5654 5653 5652 5652 5652 5651 5648 5646 5644 5642 5639 5636 5631 5623 5616 5617 5615 5615 5614 5613
5673 5673 5671 5666 5666 5669 5670 5670 5671 5669 5667 5664 5663 5662 5659 5656 5654 5652 5650 5649 5647 5646 5645 5643 5642 5641 5640 5641 5641 5639 5637 5634 5633 5631 5629 5627 5623 5618 5611 5602 5598 5596 5595 5593
5659 5659 5655 5655 5655 5657 5658 5658 5658 5656 5654 5652 5651 5650 5648 5646 5643 5641 5640 5638 5637 5636 5635 5634 5632 5630 5629 5629 5628 5627 5625 5622 5622 5620 5619 5616 5613 5609 5605 5601 5595 5586 5579 5576
5649 5653 5650 5647 5646 5646 5646 5646 5645 5642 5641 5639 5639 5638 5636 5634 5632 5629 5628 5628 5627 5626 5624 5623 5621 5619 5619 5618 5617 5616 5615 5613 5611 5609 5607 5604 5601 5598 5594 5590 5585 5579 5573 5566
5641 5640 5639 5637 5636 5636 5636 5636 5634 5630 5629 5628 5627 5626 5624 5622 5620 5618 5617 5617 5617 5614 5613 5612 5610 5609 5608 5608 5607 5605 5603 5599 5599 5598 5595 5592 5589 5586 5583 5579 5575 5570 5566 5561
5632 5630 5629 5627 5626 5626 5626 5626 5625 5622 5620 5618 5616 5615 5613 5612 5610 5608 5607 5606 5605 5604 5602 5602 5600 5600 5599 5599 5599 5597 5594 5590 5587 5588 5584 5581 5578 5574 5571 5568 5564 5559 5553 5547
5630 5628 5627 5624 5621 5618 5616 5615 5615 5613 5611 5609 5608 5606 5605 5604 5602 5599 5598 5597 5596 5595 5593 5592 5591 5591 5591 5590 5590 5589 5587 5584 5581 5578 5574 5571 5567 5564 5561 5556 5552 5548 5543 5538
5622 5620 5618 5616 5614 5612 5610 5608 5606 5605 5603 5602 5600 5598 5596 5595 5593 5591 5590 5589 5588 5586 5583 5582 5581 5584 5582 5580 5580 5580 5578 5576 5572 5568 5564 5558 5558 5555 5551 5546 5542 5538 5534 5530
5612 5611 5609 5606 5605 5603 5601 5600 5599 5597 5595 5594 5592 5590 5588 5586 5584 5583 5582 5581 5580 5579 5576 5575 5576 5576 5574 5572 5572 5573 5571 5568 5564 5560 5556 5553 5549 5545 5540 5536 5531 5527 5523 5518
5605 5602 5600 5598 5597 5596 5595 5593 5592 5590 5588 5588 5586 5584 5582 5579 5578 5577 5577 5574 5570 5570 5569 5567 5569 5568 5566 5564 5564 5564 5562 5559 5555 5551 5547 5543 5538 5534 5529 5525 5520 5516 5513 5508
5599 5596 5594 5593 5591 5589 5588 5587 5586 5585 5583 5582 5580 5578 5576 5573 5572 5571 5569 5567 5564 5561 5565 5564 5562 5557 5556 5556 5557 5555 5552 5548 5545 5541 5537 5532 5527 5523 5519 5514 5510 5506 5502 5497
5593 5591 5589 5587 5586 5584 5582 5582 5581 5580 5578 5577 5575 5573 5572 5570 5570 5567 5563 5560 5559 5556 5558 5554 5548 5546 5546 5548 5547 5544 5541 5537 5534 5530 5525 5521 5516 5512 5508 5503 5499 5495 5491 5487
5587 5586 5584 5582 5580 5578 5577 5576 5575 5574 5573 5571 5569 5567 5566 5565 5563 5561 5557 5549 5549 5548 5547 5540 5537 5537 5537 5540 5537 5534 5530 5527 5524 5520 5516 5511 5506 5501 5497 5493 5489 5485 5481 5477
5582 5580 5579 5577 5575 5574 5572 5570 5569 5567 5567 5565 5563 5561 5562 5560 5558 5554 5550 5545 5540 5541 5538 5531 5529 5529 5531 5530 5527 5524 5521 5517 5514 5510 5506 5501 5497 5493 5488 5484 5480 5476 5471 5467
5576 5575 5574 5574 5573 5571 5570 5569 5567 5565 5564 5561 5558 5557 5555 5552 5549 5546 5543 5540 5537 5533 5532 5528 5525 5523 5523 5520 5517 5514 5510 5506 5503 5500 5497 5493 5489 5484 5480 5475 5470 5467 5463 5459
5571 5570 5568 5569 5568 5568 5567 5566 5564 5562 5560 5558 5554 5552 5550 5547 5544 5541 5539 5536 5532 5529 5526 5523 5521 5518 5515 5512 5509 5505 5502 5498 5495 5491 5488 5484 5480 5476 5471 5466 5462 5459 5455 5452